Wetbulb
58.08 57.68 57.45 57.40 56.81 56.52 56.43 56.49 56.31 56.11 55.91 55.81 55.80 55.81 55.87 56.20 56.25 56.33 56.47 56.56 56.49 56.20 56.77 57.25 57.67 58.14 59.43 56.55 56.92 68.26 66.30 66.85 63.91 67.50 63.38 61.01 59.74 62.75 61.12 63.12 66.50 64.11 65.47 65.42 66.27 67.77 66.89
57.70 57.57 57.25 56.87 56.63 56.34 56.07 55.82 55.88 55.69 55.58 55.53 55.59 56.06 55.92 56.17 56.11 56.37 56.39 56.32 55.95 55.71 56.10 57.03 57.75 58.73 57.99 52.78 63.52 65.95 63.08 60.92 61.47 65.27 62.65 61.73 60.37 63.05 60.45 61.91 64.83 66.62 66.26 64.72 64.46 65.74 67.99
57.22 56.85 56.72 56.67 56.49 56.18 55.96 55.78 55.83 55.71 55.60 55.66 55.78 56.06 56.00 56.08 56.28 56.35 55.88 55.39 55.44 55.64 55.81 56.99 58.25 60.27 58.69 55.85 64.83 63.99 62.35 59.69 63.61 64.65 61.33 62.27 61.10 59.04 61.35 60.57 67.15 65.30 62.71 63.43 63.94 65.47 66.79
57.34 56.68 56.77 56.63 56.66 56.31 56.10 55.83 55.89 56.12 55.91 55.67 55.83 56.01 55.97 55.95 55.89 55.72 55.04 54.62 55.87 57.42 57.11 57.27 58.89 60.74 58.31 63.66 65.20 63.47 64.46 62.06 64.14 64.18 61.83 61.78 61.30 59.90 60.51 63.37 63.40 62.93 62.95 58.38 63.72 66.83 67.02
57.38 56.63 56.69 56.73 56.49 56.42 56.26 56.05 55.56 55.73 56.24 56.52 56.46 56.51 56.07 56.32 55.77 54.85 54.35 54.43 57.33 59.43 58.40 58.12 60.14 60.55 56.32 64.35 61.04 63.95 63.77 60.02 60.97 61.50 61.49 61.04 60.51 58.71 60.56 58.55 58.07 61.20 57.68 58.01 61.64 66.15 66.15
57.25 57.04 56.58 56.37 56.36 56.32 56.28 56.09 56.29 56.46 56.58 56.43 56.34 56.54 56.46 55.97 55.07 54.31 54.05 54.20 56.75 58.96 60.19 61.70 61.60 56.89 60.21 57.19 60.77 62.15 63.05 60.88 58.45 58.52 57.38 56.57 57.38 56.52 57.12 57.89 52.47 55.78 56.61 59.87 59.16 64.20 64.67
57.10 56.61 56.17 56.07 55.86 56.11 56.22 56.20 56.27 56.20 56.43 56.58 56.54 56.19 55.83 55.01 54.00 53.50 54.46 59.74 58.72 57.78 57.35 55.36 53.98 55.46 57.20 60.76 61.99 60.11 60.48 58.88 58.35 56.53 52.32 54.27 52.27 51.12 54.07 56.26 58.68 58.66 57.75 56.97 59.45 64.41 62.05
56.92 56.72 55.94 55.91 56.17 56.32 56.31 56.13 56.30 56.24 56.24 56.54 56.38 55.06 55.18 54.47 53.87 53.63 56.37 57.45 55.75 56.79 52.98 56.06 54.32 56.29 59.22 61.42 55.43 58.89 61.72 55.22 54.29 51.65 54.30 51.72 49.56 54.15 55.23 55.83 57.05 58.47 57.29 56.59 60.03 63.51 61.54
57.19 56.39 56.30 56.48 56.24 56.19 56.14 56.04 55.97 56.09 56.25 56.17 55.73 55.21 54.51 53.93 53.48 55.38 59.18 56.69 59.37 58.53 52.68 53.52 53.65 54.74 56.43 59.63 55.35 56.40 58.60 56.63 53.19 51.65 52.70 50.59 52.15 54.71 53.75 54.59 55.87 57.99 57.45 57.38 57.08 58.92 59.51
57.40 56.71 56.25 56.03 56.11 56.08 56.16 55.93 56.11 55.91 55.98 55.68 55.23 54.88 53.64 52.89 50.70 59.73 56.91 58.73 59.46 58.73 49.20 49.03 49.98 53.94 56.60 56.39 53.09 58.83 60.19 58.15 53.72 51.19 52.74 52.45 54.46 53.50 52.80 54.99 56.92 54.71 58.92 57.59 57.23 56.70 53.98
57.42 56.63 56.27 56.10 55.90 56.01 55.87 56.03 55.90 55.63 55.70 55.42 54.81 54.36 53.20 51.16 58.83 56.30 58.50 59.41 59.33 57.77 40.22 49.21 50.24 58.03 55.98 53.50 55.37 55.62 60.51 58.42 53.71 52.50 53.19 50.96 52.35 52.10 52.34 54.86 56.86 54.68 59.46 57.53 56.35 55.64 55.77
57.44 56.72 56.27 56.14 56.04 55.97 55.76 55.80 55.78 55.30 55.44 54.95 54.44 53.59 52.83 56.84 59.08 59.01 59.60 60.30 57.66 46.11 39.15 46.51 51.15 50.41 51.03 52.48 53.87 56.31 56.69 59.56 59.06 55.01 53.81 53.21 55.16 55.24 54.92 56.82 56.97 58.20 57.65 57.81 56.89 55.23 50.32
57.49 56.48 56.29 56.10 56.03 55.71 55.38 55.56 55.76 55.38 55.03 54.30 53.29 52.30 53.42 59.83 58.12 61.59 60.89 57.59 47.10 42.51 50.02 45.98 46.83 49.33 50.02 49.33 51.03 53.02 52.85 52.04 52.23 49.94 49.55 52.73 52.54 56.35 57.90 55.15 57.19 56.93 54.74 49.63 48.17 48.54 48.08
57.59 56.29 56.04 55.79 55.74 55.44 55.56 55.70 55.68 55.42 54.99 53.76 51.66 50.73 57.75 60.44 61.50 60.91 59.47 52.59 41.40 46.61 46.56 49.52 47.31 47.97 46.69 49.72 50.71 51.79 51.03 49.63 54.02 54.05 50.34 48.10 46.76 53.92 57.46 56.60 54.43 54.76 54.22 49.61 44.28 45.99 48.30
57.65 56.35 55.90 55.97 55.54 55.54 55.62 55.74 55.38 55.21 54.45 53.00 50.51 59.91 61.13 62.23 61.09 60.59 55.12 45.34 43.57 46.89 46.80 47.28 46.36 44.84 45.70 48.68 49.91 50.59 50.18 49.77 51.66 52.71 48.01 48.40 47.89 52.75 53.63 56.69 55.05 54.45 51.49 54.68 50.63 52.25 49.17
57.70 56.51 55.80 56.09 55.70 55.58 55.70 55.80 55.36 54.87 54.12 52.45 60.51 60.20 60.84 60.67 60.93 58.45 52.23 44.11 47.98 49.22 48.09 49.74 43.55 45.29 44.61 46.91 47.50 48.81 49.32 50.63 50.06 51.84 53.85 51.69 46.77 50.71 51.11 53.06 54.61 53.36 56.39 50.48 50.87 45.99 45.23
57.88 56.62 55.60 55.85 55.76 55.64 56.03 55.87 55.19 54.48 53.31 52.35 59.44 55.89 59.91 61.22 60.45 55.57 47.60 48.78 49.15 49.67 50.32 48.56 46.49 44.60 46.03 46.12 47.43 47.34 47.62 49.33 50.57 51.49 53.29 52.75 50.64 48.54 50.48 49.90 50.92 52.10 51.67 53.33 52.89 51.13 47.54
58.05 56.58 55.41 55.75 55.60 55.82 56.17 55.83 54.73 53.55 51.80 49.90 57.94 52.61 58.97 60.22 53.45 54.48 50.16 50.18 46.60 49.31 50.95 49.59 50.31 48.97 46.17 46.47 46.92 46.67 46.65 49.12 51.27 51.77 49.41 52.85 50.63 46.93 47.88 51.40 52.16 52.59 52.55 53.27 48.86 48.60 50.42
58.10 56.67 55.42 55.75 55.80 55.99 56.15 55.46 54.36 53.19 52.25 59.09 55.28 54.58 59.66 58.98 49.00 49.03 49.72 48.36 49.76 48.86 49.63 49.22 48.11 49.88 50.80 47.20 44.25 47.35 47.49 49.22 50.98 51.28 50.71 51.41 48.84 45.59 45.68 48.56 50.95 49.75 52.04 52.73 53.05 52.74 50.35
58.22 56.72 55.30 55.73 56.05 56.09 56.13 55.36 54.18 53.37 52.78 56.86 55.18 50.89 53.66 55.56 54.56 50.35 48.20 47.33 46.71 49.67 49.29 50.15 49.02 50.71 49.60 48.70 50.71 47.66 47.85 48.90 50.87 49.11 49.80 52.68 49.74 48.12 44.00 47.12 49.80 48.16 49.08 50.89 51.11 48.74 50.03
58.27 56.88 55.24 55.55 56.11 56.27 56.31 55.56 54.48 53.32 53.06 57.90 55.07 50.49 53.12 49.40 49.36 50.05 49.56 48.39 45.81 45.59 49.24 50.75 48.34 48.32 48.92 47.07 47.63 47.75 49.21 48.89 50.03 50.10 51.43 50.54 46.40 48.31 48.08 47.38 48.78 49.10 48.43 48.05 49.01 50.83 48.85
57.86 56.83 55.08 55.23 55.93 56.21 56.33 55.97 54.93 53.62 52.16 58.83 55.00 54.15 53.29 51.62 50.68 49.33 47.19 47.19 45.86 46.36 48.37 46.11 46.67 47.36 49.05 48.62 49.29 47.21 48.81 49.63 49.19 50.95 50.85 50.69 47.63 48.07 45.83 46.28 46.24 45.11 46.36 46.44 48.38 49.34 50.89
57.64 57.01 54.58 54.56 55.53 55.99 56.35 56.11 55.44 53.79 54.04 58.05 59.31 57.90 54.86 48.68 50.00 48.69 47.32 46.89 45.77 47.48 47.61 48.68 47.89 47.98 47.59 48.31 50.97 52.25 52.80 52.19 52.19 50.91 48.55 49.43 48.30 46.56 42.99 45.99 44.70 42.50 46.44 46.91 47.52 49.54 51.35
57.30 57.07 54.24 54.13 55.33 55.61 56.27 56.47 55.93 54.63 53.42 60.96 59.27 58.34 54.66 49.70 50.43 48.48 47.86 48.16 47.67 48.14 46.41 48.15 49.35 48.57 50.20 52.53 52.27 51.62 51.40 51.43 50.81 51.16 51.45 48.57 48.65 47.72 43.13 45.43 37.38 46.32 49.75 49.17 47.79 48.95 52.06
57.10 56.77 53.83 53.78 54.95 55.29 56.02 56.82 56.46 55.42 54.34 60.99 60.43 58.58 55.21 52.07 50.87 49.58 48.89 48.61 49.54 50.07 49.00 48.55 48.93 51.23 52.73 50.93 47.85 44.05 45.06 45.67 46.55 47.88 48.61 49.96 48.86 44.91 41.91 41.84 44.10 44.86 47.14 46.36 46.93 47.67 51.31
56.92 56.31 53.41 53.33 54.35 54.98 55.78 56.43 56.45 55.89 54.63 60.47 60.43 61.80 57.32 53.58 51.15 51.44 49.71 50.20 50.21 49.93 49.36 48.93 51.62 53.87 52.19 49.84 49.08 41.56 41.84 43.11 42.83 44.16 48.72 48.63 49.90 45.77 43.93 39.81 37.93 46.23 49.01 51.72 50.22 44.66 51.88
56.60 56.38 53.32 52.83 53.88 54.70 55.32 56.04 56.22 56.15 54.99 56.96 60.11 62.35 59.07 52.98 54.20 53.73 52.78 52.40 52.30 51.18 51.13 50.38 49.79 49.68 52.22 49.57 47.16 43.90 42.99 45.81 41.44 41.12 42.20 43.99 45.02 42.43 42.91 41.20 44.48 49.84 49.69 50.05 40.68 45.99 52.49
55.98 56.22 53.27 52.25 53.32 54.31 54.78 55.40 56.05 55.87 55.94 56.23 60.06 61.57 58.19 54.99 55.82 54.06 54.43 52.63 52.30 52.52 51.01 51.61 49.71 49.44 48.67 46.78 46.62 46.03 44.48 45.12 43.73 46.76 45.22 43.85 42.51 42.43 43.68 41.70 39.19 51.48 49.09 44.64 50.64 52.92 52.74
55.64 56.08 53.84 52.00 52.91 53.90 54.45 54.84 55.56 55.71 55.43 54.69 59.22 61.47 60.65 56.21 56.92 58.46 57.21 57.88 56.50 55.99 55.10 52.44 51.38 48.52 50.79 50.83 49.56 49.02 46.34 46.96 44.60 41.81 48.58 43.25 47.17 45.35 45.27 46.48 52.53 53.05 51.77 54.36 54.30 52.34 51.47
MSLP
1021.49 1021.19 1020.89 1020.57 1020.24 1019.95 1019.61 1019.27 1018.87 1018.49 1018.16 1017.83 1017.43 1016.95 1016.61 1016.24 1015.94 1015.61 1015.31 1015.01 1014.65 1014.41 1014.19 1013.97 1013.86 1013.57 1013.15 1009.99 1006.69 1007.23 1008.05 1008.39 1008.39 1007.97 1006.34 1005.63 1005.15 1004.53 1003.66 1003.49 1004.61 1004.78 1003.79 1003.78 1004.02 1004.22 1005.62
1021.71 1021.37 1021.01 1020.63 1020.28 1019.89 1019.53 1019.20 1018.83 1018.44 1018.06 1017.73 1017.26 1016.86 1016.37 1016.02 1015.58 1015.28 1014.96 1014.75 1014.43 1014.14 1013.92 1013.84 1013.67 1013.42 1011.90 1007.85 1006.01 1007.15 1007.24 1007.70 1007.43 1006.95 1005.93 1005.49 1004.75 1004.22 1003.55 1003.09 1003.81 1003.48 1003.21 1003.23 1003.18 1003.60 1005.16
1021.75 1021.35 1020.99 1020.61 1020.15 1019.77 1019.42 1019.03 1018.57 1018.11 1017.68 1017.37 1016.98 1016.52 1016.09 1015.71 1015.31 1014.88 1014.63 1014.44 1014.15 1013.69 1013.56 1013.66 1013.44 1012.62 1009.84 1006.47 1006.01 1006.51 1006.91 1006.70 1006.65 1006.03 1005.41 1005.19 1004.75 1004.51 1003.79 1003.35 1003.21 1003.31 1002.96 1002.84 1002.79 1003.57 1004.59
1021.65 1021.29 1020.90 1020.50 1020.08 1019.71 1019.31 1018.89 1018.45 1017.96 1017.43 1016.89 1016.58 1016.11 1015.77 1015.37 1014.96 1014.59 1014.29 1014.03 1013.56 1013.17 1013.09 1013.17 1013.32 1011.48 1007.25 1006.45 1006.08 1006.30 1006.22 1006.00 1006.32 1005.91 1005.31 1005.42 1005.49 1004.69 1003.85 1003.20 1003.16 1002.95 1002.66 1002.09 1002.63 1003.40 1004.36
1021.68 1021.26 1020.84 1020.41 1019.95 1019.52 1019.08 1018.65 1018.25 1017.74 1017.24 1016.74 1016.31 1015.82 1015.38 1014.97 1014.78 1014.38 1014.01 1013.55 1012.94 1012.19 1012.55 1012.78 1012.48 1010.00 1006.22 1007.30 1006.30 1005.93 1005.81 1005.81 1005.85 1005.72 1005.58 1005.99 1005.89 1004.55 1004.11 1002.99 1002.69 1002.09 1000.89 1001.38 1002.00 1002.93 1003.75
1021.61 1021.16 1020.71 1020.27 1019.78 1019.32 1018.93 1018.45 1018.00 1017.48 1016.96 1016.46 1016.02 1015.47 1015.03 1014.65 1014.43 1014.22 1013.90 1013.47 1013.11 1012.55 1012.23 1011.52 1009.91 1008.49 1006.31 1005.54 1005.57 1005.90 1005.90 1005.93 1005.69 1005.82 1006.11 1006.25 1005.14 1004.00 1003.00 1002.42 1000.67 1000.49 1000.09 1000.29 1001.55 1002.42 1002.80
1021.54 1021.05 1020.65 1020.14 1019.67 1019.22 1018.71 1018.19 1017.78 1017.25 1016.73 1016.15 1015.69 1015.22 1014.69 1014.44 1014.26 1014.03 1013.53 1012.44 1012.01 1010.47 1009.49 1006.64 1006.07 1005.12 1004.47 1004.58 1005.59 1005.75 1005.82 1005.85 1005.73 1005.65 1005.01 1005.13 1003.95 1002.69 1002.01 1001.57 1000.09 999.61 999.61 1000.31 1001.87 1001.13 1002.19
1021.60 1021.16 1020.59 1020.07 1019.53 1018.88 1018.45 1018.03 1017.47 1017.00 1016.36 1015.71 1015.25 1014.88 1014.47 1014.19 1013.91 1013.74 1013.21 1009.03 1008.60 1008.25 1006.64 1006.13 1005.55 1004.89 1004.25 1004.63 1004.98 1005.10 1005.71 1005.47 1005.37 1004.59 1004.17 1004.37 1002.96 1002.00 1001.55 1001.05 1000.41 999.72 998.91 999.57 1001.01 1000.87 1001.73
1021.51 1021.15 1020.57 1019.99 1019.29 1018.87 1018.12 1017.42 1016.93 1016.35 1016.01 1015.53 1014.97 1014.53 1014.17 1013.99 1013.67 1012.95 1010.13 1008.59 1008.21 1007.80 1006.15 1004.80 1004.87 1004.68 1004.59 1004.38 1004.04 1004.53 1005.02 1004.33 1004.58 1004.01 1003.37 1002.69 1002.10 1001.63 1001.41 1001.10 1000.84 999.73 998.45 999.11 1000.05 1001.38 1001.53
1021.38 1020.87 1020.39 1019.71 1019.18 1018.65 1018.02 1017.31 1016.62 1016.20 1015.64 1015.25 1014.81 1014.30 1014.04 1013.84 1013.80 1009.55 1008.30 1008.13 1007.60 1007.69 1005.23 1003.99 1004.10 1003.45 1003.87 1004.14 1003.39 1004.12 1004.51 1003.73 1003.66 1003.25 1002.93 1002.47 1001.55 1001.60 1001.63 1001.18 1001.01 999.77 999.20 999.57 1000.17 1000.92 1000.41
1021.22 1020.72 1020.25 1019.70 1019.04 1018.40 1017.89 1017.29 1016.66 1015.95 1015.49 1014.89 1014.54 1014.16 1013.80 1013.89 1011.56 1008.55 1008.03 1007.66 1007.68 1007.48 1004.11 1003.25 1003.10 1002.75 1003.31 1002.96 1002.43 1003.91 1004.30 1003.50 1002.68 1002.45 1002.97 1002.02 1001.57 1002.00 1001.97 1001.24 1001.30 999.78 999.85 1000.10 1000.53 1000.61 1000.22
1021.17 1020.59 1020.13 1019.69 1018.95 1018.25 1017.57 1016.87 1016.26 1015.61 1014.89 1014.49 1014.17 1013.94 1013.58 1012.24 1010.97 1008.44 1007.93 1007.75 1007.69 1006.48 1003.43 1003.21 1002.90 1003.00 1002.80 1002.51 1002.64 1003.55 1003.86 1003.49 1002.60 1002.34 1002.80 1001.54 1002.14 1002.27 1001.77 1001.45 1001.35 1000.92 1000.27 1001.30 1001.15 1000.41 999.63
1021.06 1020.42 1019.88 1019.32 1018.74 1018.11 1017.38 1016.77 1015.97 1015.36 1014.67 1014.03 1013.55 1013.45 1013.38 1010.57 1008.18 1007.85 1007.83 1007.32 1006.08 1004.49 1004.69 1003.59 1003.02 1003.03 1002.43 1002.00 1002.23 1003.12 1003.39 1003.37 1002.42 1002.23 1002.46 1002.11 1002.02 1002.13 1001.78 1001.44 1001.70 1001.78 1001.31 1000.80 1000.57 999.97 999.09
1020.91 1020.33 1019.75 1019.15 1018.60 1017.93 1017.17 1016.32 1015.63 1014.87 1014.11 1013.47 1013.07 1012.81 1010.76 1009.42 1008.60 1007.95 1007.53 1006.39 1005.70 1005.54 1004.69 1004.31 1004.27 1003.75 1002.31 1001.99 1002.31 1003.07 1003.16 1002.64 1002.44 1001.94 1001.70 1001.91 1002.20 1002.11 1002.43 1001.45 1001.65 1001.67 1000.94 999.47 998.97 998.75 998.97
1020.76 1020.17 1019.60 1019.03 1018.45 1017.85 1016.99 1016.18 1015.39 1014.62 1013.87 1013.03 1012.57 1010.63 1008.87 1007.65 1007.75 1007.72 1006.99 1005.75 1006.60 1005.87 1007.05 1005.15 1005.66 1004.91 1002.75 1002.53 1002.42 1002.59 1002.91 1002.68 1003.02 1003.10 1002.71 1001.37 1001.91 1003.15 1003.17 1002.67 1002.61 1001.48 1000.51 999.11 998.27 998.08 998.51
1020.74 1020.06 1019.48 1018.87 1018.35 1017.63 1016.88 1015.93 1015.00 1014.19 1013.45 1012.94 1010.92 1008.02 1007.01 1007.14 1007.17 1006.89 1005.96 1005.78 1006.45 1007.70 1007.87 1006.53 1006.20 1005.51 1003.95 1003.45 1003.07 1003.04 1003.17 1004.71 1004.23 1004.53 1004.19 1002.03 1002.07 1003.57 1003.91 1004.26 1003.23 1002.35 1001.29 999.70 999.09 997.69 998.01
1020.66 1019.99 1019.41 1018.86 1018.08 1017.47 1016.51 1015.67 1014.74 1013.76 1013.01 1012.55 1010.30 1006.76 1006.71 1006.54 1006.29 1005.55 1005.61 1005.91 1007.30 1008.41 1008.04 1006.95 1007.01 1006.39 1005.82 1004.18 1004.28 1004.01 1004.38 1005.98 1006.07 1004.92 1004.61 1003.06 1002.31 1003.63 1004.19 1003.49 1002.73 1002.47 1001.63 1000.15 999.35 998.22 997.77
1020.55 1019.95 1019.29 1018.72 1018.11 1017.39 1016.57 1015.59 1014.72 1013.73 1012.33 1011.85 1008.34 1006.02 1006.57 1006.36 1005.45 1005.25 1005.52 1006.94 1008.23 1008.07 1008.07 1007.61 1006.96 1006.00 1006.41 1006.03 1005.50 1005.61 1005.72 1006.72 1007.44 1006.23 1004.83 1004.27 1003.34 1003.16 1003.54 1003.70 1003.95 1002.88 1001.85 1001.49 1000.17 999.59 999.25
1020.33 1019.83 1019.22 1018.71 1018.16 1017.40 1016.56 1015.55 1014.70 1013.81 1013.59 1011.73 1008.04 1006.79 1006.64 1005.82 1004.71 1005.55 1007.40 1007.98 1008.31 1008.07 1008.21 1007.82 1007.59 1007.29 1006.54 1006.51 1007.01 1006.37 1007.25 1008.33 1008.07 1007.11 1006.50 1005.85 1004.27 1003.19 1004.09 1004.62 1004.48 1003.75 1003.05 1002.63 1001.41 1000.52 1000.55
1020.12 1019.65 1019.12 1018.66 1017.99 1017.35 1016.52 1015.66 1014.53 1013.65 1013.24 1012.75 1008.41 1006.47 1006.72 1006.43 1006.53 1006.56 1007.29 1007.74 1008.49 1009.35 1009.00 1008.91 1008.59 1007.89 1007.30 1006.90 1006.43 1006.81 1007.25 1008.29 1008.48 1008.60 1008.47 1007.72 1004.84 1003.91 1004.30 1003.22 1003.46 1004.03 1003.85 1004.07 1003.17 1002.24 1001.83
1020.09 1019.73 1019.22 1018.61 1018.07 1017.27 1016.50 1015.56 1014.59 1013.49 1013.00 1012.65 1008.95 1008.27 1008.32 1007.11 1007.39 1007.68 1007.99 1008.48 1008.55 1008.81 1009.34 1009.30 1009.09 1008.63 1007.71 1007.02 1006.87 1006.90 1007.43 1008.27 1008.67 1009.02 1008.39 1007.55 1006.23 1005.80 1005.91 1005.84 1004.61 1004.21 1004.66 1004.90 1004.41 1003.73 1003.52
1019.87 1019.57 1019.15 1018.60 1018.11 1017.31 1016.68 1015.77 1014.67 1013.30 1012.04 1010.49 1008.79 1008.43 1008.55 1008.69 1008.79 1008.31 1009.16 1009.19 1009.36 1009.79 1009.54 1009.53 1009.48 1009.49 1009.00 1008.19 1008.47 1007.77 1007.61 1007.75 1007.94 1008.67 1008.29 1007.83 1007.11 1007.15 1006.63 1007.17 1006.76 1006.21 1006.23 1006.30 1005.34 1005.13 1005.17
1019.70 1019.49 1019.16 1018.68 1018.19 1017.72 1016.89 1016.11 1015.22 1013.96 1012.21 1010.29 1010.23 1009.86 1008.56 1009.32 1008.53 1008.46 1009.56 1010.04 1010.52 1010.93 1011.25 1011.13 1010.73 1010.16 1010.31 1010.89 1010.41 1009.83 1009.54 1009.06 1009.18 1008.95 1008.75 1008.62 1007.55 1007.95 1006.93 1007.26 1007.33 1006.89 1006.32 1006.53 1006.46 1006.54 1005.90
1019.47 1019.18 1019.00 1018.67 1018.17 1017.79 1017.28 1016.61 1015.73 1014.90 1014.53 1011.87 1011.46 1010.22 1008.56 1008.48 1008.81 1009.55 1010.29 1010.77 1011.13 1011.41 1011.54 1011.64 1011.53 1011.18 1012.28 1012.41 1011.77 1010.71 1010.26 1010.29 1010.28 1010.04 1009.60 1009.21 1008.99 1008.35 1007.84 1008.11 1007.63 1007.18 1007.55 1006.83 1007.27 1007.99 1008.07
1019.29 1019.11 1018.91 1018.61 1018.18 1017.75 1017.34 1016.81 1016.21 1015.44 1014.77 1012.83 1011.97 1010.91 1009.30 1008.70 1009.47 1010.23 1010.57 1011.23 1011.83 1012.18 1012.02 1012.11 1012.60 1012.80 1012.77 1012.20 1011.29 1011.14 1010.90 1011.00 1010.59 1010.71 1010.21 1009.85 1009.55 1008.83 1008.43 1008.13 1008.11 1008.66 1008.96 1008.61 1008.27 1009.29 1009.87
1019.01 1018.90 1018.64 1018.66 1018.31 1017.92 1017.39 1017.18 1016.68 1016.01 1015.31 1014.11 1012.91 1012.51 1010.67 1009.36 1009.23 1010.29 1010.61 1011.07 1010.53 1010.98 1011.96 1012.69 1013.31 1013.17 1012.63 1011.54 1011.49 1011.28 1010.53 1010.93 1010.97 1011.17 1011.09 1010.44 1010.58 1009.90 1009.35 1008.75 1008.01 1008.57 1009.63 1010.23 1009.71 1009.76 1011.49
1018.95 1018.83 1018.73 1018.66 1018.13 1017.92 1017.47 1017.44 1017.09 1016.48 1015.85 1015.15 1013.13 1013.24 1011.69 1009.83 1010.11 1010.49 1010.04 1010.43 1011.11 1011.13 1010.90 1012.22 1012.89 1012.97 1012.88 1011.55 1011.78 1012.41 1012.71 1013.46 1012.48 1011.41 1011.34 1011.17 1010.94 1010.49 1009.93 1009.68 1009.34 1010.52 1011.51 1011.85 1011.73 1011.92 1012.70
1018.77 1018.49 1018.49 1018.27 1018.03 1017.97 1017.54 1017.48 1017.40 1016.79 1016.24 1015.61 1013.40 1013.57 1012.70 1010.67 1010.31 1010.87 1010.91 1011.01 1011.13 1010.93 1010.61 1011.98 1012.30 1012.36 1012.21 1012.14 1012.30 1013.29 1013.67 1014.27 1013.71 1012.18 1011.54 1011.31 1011.24 1010.62 1010.62 1010.26 1010.64 1011.72 1012.45 1012.43 1013.20 1013.81 1014.24
1018.33 1018.21 1018.14 1018.35 1017.86 1017.89 1017.60 1017.41 1017.55 1017.08 1016.45 1015.97 1013.10 1013.64 1013.55 1012.27 1010.85 1011.48 1011.05 1011.18 1011.28 1011.25 1011.00 1011.96 1011.82 1011.89 1011.69 1012.11 1013.00 1013.23 1014.00 1014.09 1013.87 1012.77 1012.73 1012.07 1011.44 1011.22 1010.99 1011.43 1012.26 1012.70 1012.95 1013.78 1014.07 1014.79 1015.47
Wind_Speed
14 14 14 14 14 14 14 14 14 15 15 15 15 15 15 16 17 16 15 15 14 13 13 11 10 6 9 10 11 11 15 15 18 21 19 17 17 17 15 13 14 5 12 2 4 9 12
14 15 15 15 15 14 14 15 14 15 14 15 15 16 16 15 16 16 16 16 14 13 12 12 9 7 10 13 7 11 16 19 20 22 18 17 13 15 11 9 8 10 9 2 3 8 11
15 16 16 15 15 15 15 15 15 15 15 17 17 16 16 16 16 14 16 16 17 14 11 11 9 9 12 6 2 10 15 18 21 18 18 16 10 9 12 10 11 2 10 9 7 10 11
14 16 16 15 15 15 15 16 17 17 17 16 17 17 17 17 17 15 14 16 16 15 10 9 10 11 9 4 6 11 15 17 17 17 13 11 5 13 10 3 10 13 13 12 12 13 8
15 16 15 15 15 14 14 15 18 17 16 16 16 16 16 15 15 14 12 16 16 3 10 9 12 13 6 4 13 12 11 14 14 14 11 7 13 15 13 11 14 14 14 16 13 8 12
16 16 16 16 16 15 15 15 17 17 17 16 16 14 14 13 13 13 10 14 7 12 9 11 10 9 10 15 14 12 13 14 15 14 10 13 11 14 13 15 16 18 18 20 10 11 13
17 17 18 17 17 16 16 15 17 17 17 17 16 15 12 11 12 11 11 7 9 9 12 8 12 11 11 16 14 14 12 15 14 16 14 17 15 18 20 21 21 16 15 13 11 15 10
18 18 18 17 16 16 17 17 18 17 17 17 15 15 12 12 11 12 9 7 10 9 9 15 6 4 5 16 17 15 17 15 14 17 19 14 18 17 17 16 14 20 19 18 4 10 8
17 17 16 17 16 17 17 17 18 16 16 16 14 12 11 10 10 6 11 6 8 7 9 12 11 14 12 19 15 18 21 17 18 19 20 15 14 15 13 16 15 18 15 14 11 9 15
16 16 16 16 18 18 19 19 18 18 15 15 15 12 11 10 3 1 6 4 8 3 9 14 12 9 19 18 15 18 21 10 13 20 18 15 9 13 12 17 19 17 17 19 21 15 12
15 16 16 17 18 19 20 20 20 18 16 15 15 12 9 7 12 10 7 8 10 5 8 15 16 14 14 22 19 19 18 15 15 14 13 16 13 13 18 17 19 13 9 5 10 17 11
15 17 17 17 18 20 20 19 20 20 16 16 15 12 10 7 9 11 6 8 6 10 2 8 10 13 19 20 16 21 18 9 10 13 14 12 10 15 17 16 17 3 17 12 12 14 13
15 17 17 18 18 19 21 21 20 21 19 15 13 10 8 7 8 9 8 9 10 5 9 10 10 16 20 16 18 19 19 16 12 14 15 6 16 16 11 16 13 9 13 12 12 14 11
15 16 17 18 18 19 21 22 21 20 18 16 13 8 12 9 9 8 7 13 2 13 9 2 6 12 18 17 18 20 19 17 9 17 16 12 16 10 13 15 14 18 21 13 13 14 14
15 16 17 18 19 20 20 22 22 21 21 16 13 8 12 2 3 6 9 9 9 9 6 6 6 18 12 16 11 17 13 12 5 5 9 15 12 10 4 14 9 18 21 25 15 18 15
15 16 17 18 19 20 21 22 23 23 21 15 7 7 2 5 6 8 11 2 8 7 1 14 14 12 11 11 12 17 8 5 3 4 10 10 14 15 11 9 13 13 15 20 10 14 16
14 16 17 17 18 20 21 22 23 24 22 12 9 7 6 5 8 12 4 12 7 7 3 8 20 6 14 3 8 6 4 7 4 7 8 11 3 12 9 14 16 11 13 15 14 16 12
13 15 17 17 18 19 20 21 23 24 28 3 8 6 7 5 10 4 9 6 4 4 2 1 7 8 8 5 1 4 6 9 4 8 11 6 9 12 17 5 4 12 11 17 12 18 14
12 14 16 17 19 20 20 21 21 22 16 9 3 4 3 9 7 6 6 8 9 2 5 3 3 6 5 16 7 10 9 2 4 5 6 3 11 8 6 8 8 11 12 11 15 16 12
12 13 16 17 18 19 20 22 22 20 16 6 5 2 5 4 5 6 4 3 8 3 5 5 2 3 9 9 6 9 8 4 4 2 7 6 13 7 6 3 12 19 7 9 14 11 11
13 13 14 16 17 18 19 21 24 23 14 5 4 6 6 6 7 8 4 2 2 5 3 1 3 3 4 3 6 9 10 8 6 5 4 7 9 6 6 6 8 7 10 7 15 17 10
13 12 12 15 16 17 19 20 23 26 27 3 2 1 4 5 1 5 3 8 6 7 10 5 4 1 4 4 9 7 5 7 5 3 3 5 5 7 6 0 0 5 7 5 5 4 8
13 10 11 14 16 17 17 19 21 26 22 4 2 1 7 5 3 5 8 6 5 3 7 6 3 2 7 7 7 8 7 5 4 6 4 6 5 7 12 5 5 11 12 11 7 5 9
12 9 9 12 14 15 16 17 18 21 16 9 5 6 4 4 6 7 7 7 7 7 6 7 4 5 6 4 4 5 2 1 3 2 6 5 7 7 9 4 12 6 6 2 7 7 7
12 6 8 10 12 13 14 15 16 18 20 8 4 6 4 2 7 7 6 7 8 5 5 7 7 5 4 5 5 5 6 5 5 4 7 7 7 8 12 8 3 7 5 7 12 11 6
9 5 5 8 10 11 12 13 15 17 19 9 7 6 6 4 7 5 6 4 3 7 6 6 3 4 4 6 0 7 4 2 5 5 6 8 7 8 8 11 14 17 12 5 0 11 9
10 5 5 7 7 9 10 13 14 15 16 8 4 7 6 6 9 4 1 3 2 2 3 5 5 5 7 3 2 3 2 6 5 5 5 8 7 10 10 7 3 11 8 4 10 7 11
9 5 4 5 6 8 8 10 13 14 14 8 5 4 6 6 7 3 3 3 5 5 2 9 7 6 6 2 3 3 4 4 5 9 3 7 6 7 10 10 12 11 7 7 11 11 10
8 6 5 5 5 6 7 8 11 12 14 12 3 1 4 6 8 4 5 1 3 5 4 4 6 1 5 0 1 3 2 3 7 4 5 6 4 4 4 5 7 9 5 10 8 10 5
Wind_Direction
10 4 359 355 350 346 343 339 336 334 332 329 325 325 320 319 317 315 313 311 308 304 301 301 295 288 265 221 255 109 157 163 182 205 207 199 204 211 221 207 150 183 259 185 156 144 108
3 0 356 352 348 346 343 341 338 333 329 325 321 316 316 314 312 313 311 308 301 296 292 290 277 268 248 248 42 123 171 167 181 203 198 202 207 219 267 225 180 200 236 191 210 148 132
359 355 353 351 346 344 342 339 334 331 326 322 320 318 316 313 310 311 309 307 300 288 275 272 254 243 260 292 25 162 167 177 183 201 193 203 220 206 234 216 188 230 227 209 171 136 143
355 354 350 346 343 341 338 334 331 327 324 326 321 320 318 315 313 312 311 306 292 276 246 242 240 234 280 77 176 174 182 173 183 208 208 197 218 236 263 190 189 221 242 184 141 169 138
353 351 348 345 341 337 332 331 333 328 323 321 317 314 314 312 311 310 310 301 304 202 187 195 223 230 232 139 185 174 184 170 174 195 204 139 237 224 218 227 209 207 205 133 167 162 151
350 349 350 346 341 336 333 328 327 324 323 319 314 310 310 313 312 308 302 286 328 161 191 204 275 222 206 189 171 169 173 181 172 162 159 205 212 214 215 217 202 195 227 150 166 180 202
348 349 349 345 343 337 332 329 327 327 324 319 318 315 314 318 313 307 291 199 201 184 204 261 158 268 147 157 145 182 171 177 184 182 194 199 210 208 202 211 232 219 217 253 156 150 175
345 347 348 343 338 334 332 330 329 328 326 322 320 323 320 317 313 302 259 269 32 337 264 212 263 317 141 148 173 174 180 183 196 200 206 185 222 201 221 214 243 258 215 172 88 146 225
342 344 340 340 338 334 330 328 327 329 328 325 323 320 318 313 315 252 260 5 327 312 253 161 196 207 196 193 183 169 188 200 197 208 205 204 201 217 216 203 216 238 220 137 163 177 234
338 340 339 340 337 336 330 328 329 333 329 329 325 322 316 319 276 304 244 359 308 323 267 140 187 212 178 207 195 175 207 197 198 209 200 225 210 195 208 196 217 207 232 152 214 191 194
336 337 338 337 338 333 331 329 329 338 332 331 326 317 305 277 322 269 358 306 327 244 250 148 155 135 186 209 143 176 205 216 208 208 199 204 184 188 207 213 212 225 167 209 192 218 201
335 335 338 339 337 333 331 330 328 334 331 330 322 311 304 207 222 269 308 292 236 231 144 157 152 194 176 219 159 163 200 246 250 208 207 225 215 197 208 215 202 289 163 197 224 240 239
335 335 336 336 336 333 331 331 330 330 330 322 310 294 257 307 308 327 293 251 224 264 242 137 177 193 193 179 172 168 191 195 206 183 197 190 193 203 241 198 195 171 195 192 208 217 228
334 335 335 335 335 335 331 330 330 326 321 315 303 293 214 266 283 272 248 240 131 271 37 25 286 208 204 175 158 178 185 198 218 221 182 185 186 168 210 234 182 205 210 207 192 206 206
334 334 335 334 337 335 334 331 331 329 322 320 312 209 252 340 319 266 259 270 272 54 331 317 221 282 208 172 175 179 195 184 153 285 327 182 165 123 271 252 269 190 235 229 273 208 212
334 330 334 335 337 336 335 332 332 329 324 322 271 258 162 318 266 252 255 354 76 43 304 260 178 303 182 176 211 197 154 35 163 238 292 306 129 191 169 233 255 272 229 240 246 251 214
334 326 333 336 338 336 333 334 334 331 325 321 249 245 71 303 254 250 202 72 87 89 317 322 176 213 294 194 214 170 59 87 313 303 284 309 271 158 180 205 209 210 242 246 249 262 215
330 326 330 336 337 336 335 337 335 335 328 244 273 263 34 259 253 321 46 16 284 67 158 85 320 158 183 248 332 138 117 25 354 308 261 247 290 163 203 84 319 303 246 219 245 231 273
327 325 329 338 338 338 336 337 338 337 345 311 321 21 37 284 283 95 111 92 31 77 26 28 89 307 243 178 207 269 135 62 22 342 13 326 254 140 181 188 206 238 218 273 258 276 270
321 327 332 339 340 338 339 337 336 338 337 286 283 225 102 48 4 95 132 94 125 60 74 68 24 211 195 187 180 189 145 135 92 41 313 286 280 260 16 60 201 207 226 234 273 243 245
321 329 334 338 340 339 341 340 335 337 336 278 330 57 346 28 54 57 51 7 86 110 118 330 111 349 332 188 166 166 145 141 184 145 227 289 265 324 60 12 356 163 199 218 238 256 311
317 326 334 338 341 341 343 342 341 338 332 272 358 79 109 103 295 153 133 53 66 61 340 80 88 77 245 57 349 137 181 194 141 167 234 232 255 262 203 347 339 229 166 269 293 291 256
319 326 336 340 343 342 344 346 347 344 335 55 79 102 283 175 202 55 38 48 78 67 62 35 4 133 101 55 15 26 357 31 74 281 177 266 236 225 244 143 246 238 215 210 187 236 265
320 320 337 341 345 344 347 347 348 346 355 328 25 284 292 108 40 77 97 91 73 68 92 54 22 309 66 250 236 234 190 165 248 237 265 231 237 241 258 171 241 77 14 261 176 174 67
322 317 334 343 344 346 347 349 349 347 346 321 12 317 319 36 97 139 127 115 126 153 78 58 54 36 196 227 206 177 187 201 187 253 244 277 248 234 256 216 159 153 174 188 196 154 177
322 309 336 345 345 342 348 349 353 347 345 305 54 312 298 305 97 95 152 224 231 135 164 102 85 351 237 255 269 249 189 255 172 173 244 223 253 267 206 257 236 69 103 25 19 189 154
322 308 326 336 340 335 345 350 351 350 344 316 58 350 282 294 109 214 304 35 22 341 60 135 151 169 249 235 175 310 39 348 271 227 174 198 218 227 228 231 209 102 118 165 215 94 142
318 290 289 308 322 328 343 351 345 347 345 328 67 7 318 316 110 225 163 182 161 243 256 104 202 189 201 172 224 146 265 182 284 275 198 200 206 215 244 225 228 130 149 231 85 116 116
301 284 253 292 306 322 338 351 340 341 338 339 263 101 317 270 35 351 293 301 298 358 330 167 7 337 27 69 291 140 237 193 235 259 190 265 255 304 281 45 82 141 59 119 128 137 139